sat.trackr.live / text

‹ back to catalog

COSMOS 2580

NORAD 62216 · 2024-230A

PAYLOAD ACTIVE UNKNOWN

§ Identity

Operator
Country
CIS
Launch date
2024-12-04
Launch site
PLMSC
Launch vehicle
Mass (kg)
RCS (m²)

External: N2YO · Heavens-Above · Gunter

§ Orbital elements

Epoch: 2026-09-20T20:01:18.272064Z

Period
103.10 min
Inclination
67.1482°
Eccentricity
0.0005406
Mean motion
13.96677509 rev/d
Perigee alt
901.4 km
Apogee alt
909.3 km
Semi-major
7,283.5 km
B*
1.3735e-5
RAAN
178.3709°
Arg perigee
266.4751°
Mean anomaly
93.5715°
Rev number
9,149

§ Raw data

COSMOS 25801 62216U 24230A   26263.83423926 -.00000056  00000+0  13735-4 0  99982 62216  67.1482 178.3709 0005406 266.4751  93.5715 13.96677509 91494

JSON: /api/v1/satellites/62216 · /tle

For live sub-satellite position, see the globe view (requires WebGL).

§ Visibility from observer

Set your observer location to see the next 7 days of passes ≥ 10°. The values pass through the URL so the page stays shareable.

No JS? Fill the form by hand. The geolocation button needs JavaScript.